Wetbulb
55.70 55.17 55.43 55.57 55.10 54.92 55.18 54.72 55.68 55.41 55.70 56.05 55.78 55.54 55.43 55.71 56.01 57.38 57.08 56.42 57.52 58.57
54.49 54.80 54.52 54.76 54.90 54.37 54.51 55.64 54.55 54.51 54.10 54.69 55.06 54.88 54.25 53.66 53.71 54.56 55.24 55.48 54.98 55.37
53.80 54.44 54.14 53.76 53.22 53.04 53.22 53.16 53.02 52.61 52.02 51.26 51.12 50.97 50.18 49.38 50.32 50.24 50.86 52.79 51.89 52.43
53.00 53.54 53.33 52.85 52.79 52.70 52.10 51.60 50.80 50.71 50.31 49.91 49.39 49.02 48.09 47.81 48.51 48.22 48.11 48.79 49.65 50.06
52.69 52.39 52.08 52.04 51.74 51.89 50.17 50.10 49.93 49.73 49.57 49.95 50.02 48.74 48.36 48.02 48.59 48.24 48.09 47.66 47.35 47.53
51.50 51.30 50.83 50.76 50.58 50.99 49.33 49.05 49.34 49.48 49.19 49.65 49.28 48.36 48.18 48.48 48.89 47.81 49.15 49.26 48.83 48.03
50.46 51.01 49.95 49.97 49.74 49.00 49.41 49.26 48.72 48.64 48.88 49.10 49.32 49.33 49.60 50.00 49.00 47.50 48.20 49.88 49.80 48.37
50.59 50.00 49.46 49.20 48.76 49.63 49.30 49.43 49.70 49.55 50.19 49.99 49.17 49.85 47.45 47.44 46.84 46.26 46.06 47.07 47.56 47.91
49.51 49.24 48.87 48.89 48.98 48.08 47.73 47.97 48.55 48.89 49.65 47.72 48.76 47.39 47.35 48.15 46.46 46.09 46.14 46.00 47.62 48.83
47.05 46.99 47.16 47.56 46.97 46.07 46.07 47.49 49.03 48.54 47.29 46.77 47.33 46.05 45.51 46.92 47.73 48.23 47.79 47.38 46.85 47.18
43.97 44.29 45.30 45.36 45.27 45.91 48.28 48.23 47.89 48.07 48.68 47.93 48.39 46.35 44.96 45.86 48.27 47.90 48.29 47.98 47.62 47.46
42.46 42.87 43.87 44.09 46.00 47.29 47.78 47.87 48.00 48.84 49.16 48.76 49.67 46.53 44.71 44.72 46.61 46.39 46.71 48.02 49.51 50.24
41.20 41.72 42.93 44.82 45.47 47.17 47.04 47.67 48.29 48.61 47.77 48.34 48.49 46.18 43.32 43.17 43.98 42.99 43.89 45.08 45.98 46.96
41.60 42.04 43.95 44.93 45.76 45.62 46.90 47.65 47.83 46.14 45.65 45.69 46.58 44.78 41.99 41.50 41.37 41.41 41.03 42.01 43.64 45.24
MSLP
1011.43 1011.80 1012.33 1012.69 1013.00 1013.27 1013.47 1013.46 1013.55 1013.45 1013.34 1013.26 1013.23 1013.13 1013.10 1012.91 1012.57 1012.36 1012.21 1012.02 1011.73 1011.14
1011.84 1012.15 1012.49 1012.75 1013.06 1013.35 1013.40 1013.53 1013.54 1013.34 1013.22 1013.33 1013.33 1013.29 1013.15 1013.03 1012.73 1012.46 1012.31 1012.02 1011.72 1011.43
1012.27 1012.45 1012.64 1012.78 1013.06 1013.18 1013.32 1013.38 1013.30 1013.33 1013.30 1013.35 1013.29 1013.23 1013.18 1013.17 1012.94 1012.77 1012.53 1012.11 1011.80 1011.25
1012.62 1012.76 1012.90 1012.99 1012.96 1013.01 1012.99 1013.05 1013.16 1013.20 1013.24 1013.23 1013.07 1012.88 1012.85 1012.76 1012.53 1012.40 1012.28 1012.01 1011.68 1011.39
1012.58 1012.67 1012.80 1012.93 1012.99 1012.89 1012.92 1012.84 1012.83 1012.78 1012.80 1012.77 1012.57 1012.43 1012.43 1012.30 1012.05 1012.02 1011.78 1011.32 1011.05 1010.75
1012.87 1012.85 1012.94 1012.94 1012.84 1012.91 1012.89 1012.65 1012.42 1012.42 1012.51 1012.37 1012.10 1011.92 1011.78 1011.45 1011.16 1011.09 1010.81 1010.43 1010.09 1009.77
1012.97 1012.82 1012.82 1012.81 1012.78 1012.75 1012.64 1012.61 1012.55 1012.45 1012.30 1012.04 1011.74 1011.54 1011.24 1010.88 1010.69 1010.52 1010.14 1009.72 1009.39 1009.12
1012.94 1012.70 1012.68 1012.62 1012.58 1012.57 1012.82 1012.81 1012.62 1012.39 1012.03 1011.64 1011.49 1011.19 1010.90 1010.66 1010.35 1009.99 1009.49 1008.98 1008.51 1008.02
1013.18 1013.02 1013.00 1012.97 1013.02 1013.00 1012.93 1012.65 1012.42 1012.06 1011.67 1011.49 1011.06 1010.61 1010.22 1009.99 1009.66 1009.08 1008.47 1007.74 1007.08 1006.70
1013.97 1013.72 1013.64 1013.40 1013.23 1013.11 1012.78 1012.44 1012.08 1011.66 1011.43 1011.03 1010.54 1009.97 1009.50 1009.02 1008.64 1007.87 1007.27 1006.66 1005.95 1005.44
1014.56 1014.18 1013.90 1013.62 1013.32 1012.98 1012.54 1012.22 1011.81 1011.39 1010.89 1010.49 1009.93 1009.29 1008.79 1008.25 1007.83 1006.98 1006.11 1005.33 1004.70 1004.14
1015.11 1014.60 1014.16 1013.66 1013.25 1012.76 1012.43 1012.03 1011.54 1011.08 1010.58 1010.10 1009.34 1008.65 1008.17 1008.09 1007.35 1006.37 1005.34 1004.30 1003.27 1002.38
1015.33 1014.83 1014.23 1013.63 1013.08 1012.57 1012.20 1011.78 1011.33 1010.90 1010.49 1009.80 1009.08 1008.49 1008.24 1008.05 1007.07 1005.85 1004.92 1003.82 1002.63 1001.60
1015.34 1014.75 1014.01 1013.43 1012.92 1012.48 1011.95 1011.51 1011.21 1010.86 1010.22 1009.66 1009.27 1008.72 1008.07 1007.25 1006.82 1006.23 1005.01 1003.41 1001.72 1000.53
Wind_Speed
8 5 5 6 4 4 4 3 5 5 5 5 5 5 5 4 4 7 6 7 7 7
7 7 6 6 4 3 4 3 5 5 5 5 5 5 5 4 6 6 5 6 6 5
6 5 5 5 4 4 3 3 5 5 6 5 4 4 4 3 4 6 7 6 7 7
4 5 4 4 4 4 4 5 5 5 4 4 5 5 5 5 6 6 6 7 8 8
5 5 5 4 4 3 3 3 3 4 5 5 5 6 6 6 7 9 10 10 9 11
4 4 2 2 4 1 3 4 5 5 6 6 6 6 7 7 8 7 10 11 12 12
3 1 2 2 1 3 3 4 6 6 6 7 9 9 8 10 6 7 10 11 10 11
5 3 2 1 4 4 5 5 6 6 7 7 6 7 6 9 11 11 12 12 13 13
5 6 5 6 6 6 5 6 6 8 9 6 7 12 15 15 11 12 12 13 13 14
10 9 7 6 6 6 7 6 9 9 7 9 11 13 16 19 12 14 15 16 15 14
10 10 9 7 6 7 7 8 8 9 11 10 10 15 16 17 12 13 15 16 16 16
9 9 7 7 8 9 7 8 9 9 11 11 12 16 14 13 14 14 17 17 18 17
7 7 9 9 10 6 7 6 7 10 8 11 11 11 15 13 10 13 12 16 18 22
8 8 8 8 8 8 6 7 6 8 7 7 9 15 16 21 13 11 13 13 13 11
Wind_Direction
56 57 69 68 52 34 47 38 43 34 26 7 346 337 330 314 310 307 300 289 285 287
54 56 53 45 53 51 43 22 10 2 352 344 347 341 335 319 312 311 304 312 315 310
71 68 63 52 35 37 27 12 10 10 18 13 8 359 349 329 319 316 308 310 326 324
83 77 67 54 27 9 16 26 28 13 349 320 299 293 281 262 264 269 282 290 287 291
75 63 51 34 357 351 29 357 332 316 300 289 277 272 260 255 268 267 272 263 254 258
52 64 53 313 305 328 304 311 318 313 299 290 289 289 270 257 267 258 275 279 270 270
335 254 253 274 340 286 283 299 301 297 290 288 295 294 292 301 294 284 284 283 272 266
301 315 320 289 281 319 6 338 325 316 300 303 304 303 308 306 295 286 282 276 270 264
8 2 353 9 30 28 346 338 327 313 316 304 297 287 289 294 287 281 275 274 271 262
3 10 359 0 21 355 338 322 316 313 293 295 294 288 285 281 281 286 280 277 271 266
353 351 345 345 349 335 325 316 312 303 299 293 293 284 284 287 303 295 286 274 264 256
339 327 331 330 329 315 317 313 312 313 313 307 299 290 300 325 321 310 303 299 289 273
317 325 319 321 311 313 309 297 311 308 304 295 306 335 327 334 327 318 311 302 292 286
324 321 318 321 321 310 307 308 305 309 307 303 346 325 329 337 332 317 306 294 287 274